Location: Unspecified
(0.0000°N, 0.0000°E)
Time: 18:52:50
(UTC+00:00)

deb r/b Ablestar - Pass Details

Date: 13 March 2026
Orbit: 865 x 1719 km, 66.5° (Epoch: 18 April)

Event Time Altitude Azimuth Distance (km) Brightness Sun altitude
Rises 19:59:10 0° 354° (N) 4,066 ? -27.4°
Reaches altitude 10° 20:02:18 10° 3° (N) 2,973 ? -28.2°
Enters shadow 20:04:01 17° 10° (N) 2,412 ? -28.6°
